Location: Asbacherhof
(48.8543°N, 10.7903°E)
Time: 22:09:03
(UTC+00:00)

COSMOS 2455 - Pass Details

Date: 26 May 2022
Orbit: 901 x 908 km, 67.1° (Epoch: 29 June)

Event Time Altitude Azimuth Distance (km) Brightness Sun altitude
Exits shadow 02:04:51 13° 211° (SSW) 2,383 4.4 -10.4°
Maximum altitude 02:10:19 87° 122° (ESE) 915 2.9 -9.8°
Drops below altitude 10° 02:16:23 10° 35° (NE) 2,602 6.9 -9.1°
Sets 02:18:54 0° 36° (NE) 3,547 8.2 -8.8°
